FW2350 Weather Reports


Display with metric or nautical units.
time (UTC)temp
F
wind
direction
speed
MPH
gust
MPH
rain 1hr
in
rain 24hr
in
rain mn
in
humidity
%
barometer
mb
20260507130330 59 138 4.0 7.0 0.00 0.00 0.00 53 1014.8
20260507123325 61 249 4.0 8.0 0.00 0.00 0.00 57 1014.9
20260507120319 58 236 4.0 8.0 0.00 0.00 0.00 60 1015.1
20260507113334 57 169 4.0 6.0 0.00 0.00 0.00 60 1015.1
20260507110327 56 182 3.0 5.0 0.00 0.00 0.00 64 1015.4
20260507103337 53 173 5.0 8.0 0.00 0.00 0.00 72 1015.7
20260507100330 52 126 4.0 7.0 0.00 0.00 0.00 76 1015.8
20260507093325 51 130 3.0 6.0 0.00 0.00 0.00 80 1015.7
20260507090318 50 148 3.0 6.0 0.00 0.00 0.00 87 1015.7
20260507083313 48 140 3.0 6.0 0.00 0.00 0.00 91 1015.8
20260507080328 46 107 1.0 4.0 0.00 0.00 0.00 93 1015.7
20260507073322 45 32 0.0 2.0 0.00 0.00 0.00 94 1015.6
20260507070317 44 32 0.0 1.0 0.00 0.00 0.00 94 1015.4
20260507063348 42 32 0.0 0.0 0.00 0.00 0.00 95 1015.4
20260507060321 41 32 0.0 1.0 0.00 0.00 0.00 94 1015.4
20260507053335 37 40 0.0 1.0 0.00 0.00 0.00 95 1015.2
20260507050328 36 32 0.0 1.0 0.00 0.00 0.00 93 1015.2
20260507043323 38 32 0.0 2.0 0.00 0.00 0.00 93 1015.1
20260507040316 39 32 0.0 1.0 0.00 0.00 0.00 93 1015.1
20260507033350 39 32 0.0 1.0 0.00 0.00 0.00 93 1015.1
20260507030323 39 32 0.0 0.0 0.00 0.00 0.00 92 1015.1
20260507023319 40 32 0.0 1.0 0.00 0.00 0.00 92 1015.1
20260507020329 41 32 1.0 4.0 0.00 0.00 0.00 92 1015.1
20260507013322 41 32 0.0 4.0 0.00 0.00 0.00 92 1015.1
20260507010316 40 332 0.0 2.0 0.00 0.00 0.00 91 1015.1
20260507003331 39 332 0.0 1.0 0.00 0.00 0.00 90 1015.2
20260507000324 41 332 0.0 2.0 0.00 0.00 0.00 89 1015.2
20260506233340 41 332 1.0 4.0 0.00 0.00 0.00 90 1015.2
20260506230331 42 332 0.0 0.0 0.00 0.00 0.00 88 1015.2
20260506223327 43 332 0.0 2.0 0.00 0.00 0.00 88 1015.1
20260506220321 43 45 1.0 2.0 0.00 0.00 0.00 86 1015.0
20260506213330 44 50 0.0 4.0 0.00 0.00 0.00 84 1014.8
20260506210324 45 57 2.0 6.0 0.00 0.00 0.00 82 1014.6
20260506203319 46 41 2.0 3.0 0.00 0.00 0.00 79 1014.4
20260506200313 48 56 3.0 5.0 0.00 0.00 0.00 76 1014.1
20260506193328 49 57 2.0 5.0 0.00 0.00 0.00 74 1013.9
20260506190321 50 59 2.0 5.0 0.00 0.00 0.00 70 1013.7
20260506183315 52 48 3.0 7.0 0.00 0.00 0.00 65 1013.7
20260506180330 54 40 4.0 7.0 0.00 0.00 0.00 62 1013.4
20260506173325 54 36 5.0 9.0 0.00 0.00 0.00 59 1013.2
20260506170320 55 65 3.0 7.0 0.00 0.00 0.00 58 1013.1
20260506163330 55 42 4.0 11.0 0.00 0.00 0.00 59 1013.2
20260506160324 58 69 5.0 11.0 0.00 0.00 0.00 50 1013.0
20260506153319 56 22 4.0 8.0 0.00 0.00 0.00 55 1013.1
20260506150353 59 17 8.0 13.0 0.00 0.00 0.00 46 1013.1
20260506143325 57 25 6.0 10.0 0.00 0.00 0.00 52 1013.3
20260506140319 57 13 4.0 10.0 0.00 0.00 0.00 53 1013.4
20260506133332 60 13 6.0 13.0 0.00 0.00 0.00 51 1013.4